STARLINK-3862 (52471 NORAD) Tracking and Keplerian Element Data
This shows tracking and keplerian element data for the satellite.
Feedback or suggestion? Click here.
Element | Value |
Catalog | 52471 |
Name | STARLINK-3862 |
Epoch Orbit | 130 |
Epoch Day | 192.91667824 |
Epoch Year | 2022 |
RAAN | 300.7251 |
Inclination | 53.2172 |
Eccentricity | 0.0001415 |
Argument of Perigee | 47.3297 |
Mean Anonmoly | 308.7193 |
Mean Motion | 15.2816748 |
Decay Rate | -0.01068835 |
L1 | 1 52471U 22049W 22192.91667824 -.01068835 00000+0 -41917-1 0 9990 |
L2 | 2 52471 53.2172 300.7251 0001415 47.3297 308.7193 15.28167480 1309 |
Live tracking and technical data element details for STARLINK-3862 (NORAD 52471). STARLINK-3862 can be tracked NOW for your location showing map with azimuth and elevation plus other details from your city location.
Track the satellite on the map from your city or location and see movement details for azimuth, elevation, latitude, longitude, range, height, and movement on the map or in text.
IsCatalogInMostPopularTable: catalog: 52471, numindb: 4
Update: records affected: 1
GetName: 52471 STARLINK-3862
Hit Count: updated at: Sun, 14 Aug 2022 00:07:18 GMT